Wind_Speed
10 11 10 10 8 11 6 2 4 4 2 2 3 4 3 2 1 2 2 1 1 1 1 1 2 2 2 4 6 8 9 11 12 12 12 12 10 9 9 9 10 10 11 12 12 11 11 10 9
8 8 8 8 8 9 2 6 6 4 2 2 3 3 2 2 2 3 2 2 2 1 1 2 3 3 3 5 7 9 10 11 12 12 12 12 11 10 9 9 9 10 11 12 12 12 11 10 9
5 5 6 4 6 6 3 7 6 5 4 4 5 5 4 4 4 4 4 3 3 3 3 4 4 5 5 6 7 9 10 11 12 12 12 12 12 11 10 9 9 10 11 12 13 13 12 10 9
3 4 4 4 3 1 3 8 7 7 6 6 8 8 8 7 7 6 5 5 4 5 5 6 6 6 6 7 7 9 10 11 12 13 12 12 12 12 11 11 11 11 12 13 13 13 13 11 10
3 3 3 3 5 4 8 9 8 8 8 9 9 9 10 9 9 8 6 5 4 4 5 5 6 7 8 8 9 10 11 13 14 14 14 14 14 14 13 13 13 13 14 14 14 14 14 13 12
6 5 3 5 12 7 6 8 9 8 10 10 11 10 11 9 8 6 5 3 3 3 4 5 7 8 10 11 12 13 14 15 16 17 17 18 17 17 16 16 16 16 17 16 16 15 14 14 14
9 8 4 4 16 12 8 8 11 10 11 10 12 12 12 10 8 6 5 4 3 4 6 8 10 12 13 14 15 16 17 18 19 19 20 20 20 20 20 20 20 20 20 19 19 18 17 17 17
12 10 7 3 16 17 9 8 11 13 15 10 12 15 11 11 9 7 7 6 7 8 10 12 14 15 16 17 18 19 20 21 22 23 23 24 24 24 24 25 25 24 24 23 22 22 21 21 21
15 13 8 4 14 17 13 10 11 15 17 16 16 19 13 12 11 10 10 11 12 13 14 16 17 19 20 21 22 22 23 24 25 26 27 28 28 29 29 29 29 29 29 28 27 26 26 25 25
17 15 10 12 16 13 13 13 12 15 17 17 19 20 14 12 13 14 14 15 16 18 18 19 20 22 24 24 25 26 26 27 27 28 29 30 31 32 33 33 34 33 33 32 32 31 31 30 30
19 19 18 20 20 21 19 15 14 15 20 25 25 21 13 11 14 17 18 19 20 22 23 24 25 26 27 28 28 28 28 28 29 29 30 30 31 33 34 35 35 36 36 35 35 35 34 33 33
22 24 26 27 25 25 25 21 17 15 21 29 33 31 26 16 18 22 22 23 24 25 27 28 29 30 32 32 32 31 30 29 29 30 30 30 30 31 32 34 35 35 36 36 36 36 35 35 34
24 25 27 28 28 28 27 26 23 20 23 30 35 35 31 23 23 26 26 27 27 29 30 32 33 34 35 36 35 34 32 32 31 30 30 31 30 30 31 31 32 32 33 33 33 34 33 33 33
24 26 27 27 26 27 26 26 25 22 24 30 35 33 30 26 27 30 31 31 31 33 34 35 36 37 37 37 36 35 34 34 34 33 32 31 31 30 30 28 28 28 28 27 27 28 29 30 30
25 26 26 26 24 23 24 25 24 21 23 29 33 34 34 32 32 36 35 34 36 37 38 39 39 39 39 38 36 34 35 36 36 35 33 32 31 29 28 26 26 25 25 25 26 27 27 28 29
21 22 23 22 21 21 25 26 21 19 25 31 33 35 36 35 37 40 39 40 41 42 41 41 41 40 39 37 36 35 36 37 35 34 32 31 29 28 26 25 24 24 24 24 25 26 25 26 28
12 16 16 16 17 22 25 23 20 22 28 32 33 34 37 38 40 41 43 44 46 46 45 44 41 40 38 36 36 37 37 36 34 32 30 29 28 26 24 24 23 22 22 21 21 22 22 24 26
8 10 12 12 17 25 25 22 22 25 30 33 35 37 40 42 42 44 47 47 48 49 45 42 40 38 37 36 36 37 36 34 32 31 30 28 26 24 23 23 20 19 18 18 18 19 20 22 24
15 15 13 12 17 25 28 26 26 28 32 36 38 40 43 44 46 49 49 49 47 46 43 40 38 37 37 37 37 37 36 33 31 30 28 27 25 23 21 20 18 17 16 17 17 18 19 21 23
8 10 13 16 20 24 28 28 26 27 29 34 38 39 41 43 45 45 46 48 45 43 37 34 35 36 37 38 38 37 35 32 30 28 26 25 23 21 19 17 17 17 17 18 19 19 20 21 23
8 10 13 17 20 22 22 21 18 17 22 28 32 34 37 40 41 41 41 39 36 34 32 31 33 36 37 38 37 35 33 31 30 27 25 24 22 20 19 19 19 20 20 20 21 20 20 21 23
10 13 18 19 19 18 16 16 14 16 21 26 29 31 34 37 40 40 38 36 29 28 29 32 34 35 36 37 37 34 32 31 29 27 26 24 23 23 22 22 23 23 23 23 22 21 21 21 22
11 13 13 12 12 12 12 12 15 18 21 26 29 31 33 37 38 37 39 39 35 32 30 33 34 35 35 35 35 33 33 31 29 27 26 26 26 26 26 27 27 27 26 25 24 23 22 22 23
10 8 6 11 15 19 19 13 15 21 24 28 31 33 35 36 37 38 38 38 38 39 37 35 35 34 34 34 35 34 33 31 29 28 28 28 29 30 30 30 31 30 29 27 26 25 25 25 25
9 9 10 14 21 25 14 7 18 23 24 26 29 31 33 35 36 37 38 38 39 39 40 40 37 36 35 36 37 37 35 32 31 30 30 30 32 33 33 33 33 33 31 29 28 27 27 27 27
10 8 10 15 16 18 19 19 24 27 28 28 29 31 35 36 37 39 40 41 42 42 43 42 42 42 41 41 42 41 40 38 36 35 33 34 35 36 36 35 35 34 33 32 31 30 30 29 29
12 11 11 15 14 13 16 28 29 28 31 30 30 35 39 40 41 43 45 46 47 47 48 48 48 48 48 48 47 47 46 45 43 42 41 39 39 39 40 39 37 36 36 35 34 33 31 31 30
16 17 16 16 17 17 16 29 32 33 33 36 39 41 42 43 44 46 48 50 51 52 53 54 54 54 54 55 55 54 54 53 52 50 49 48 46 44 44 43 41 40 39 38 37 35 33 32 32
16 17 18 20 20 21 21 29 32 35 37 40 41 43 45 46 48 50 52 54 55 57 58 59 60 60 60 60 60 60 60 60 59 58 57 56 54 51 49 47 45 44 42 41 40 38 36 34 33
17 21 22 23 23 23 25 33 33 35 39 41 43 46 48 50 52 54 56 57 59 60 61 62 63 64 64 65 65 65 65 64 64 64 63 62 60 58 55 52 50 47 45 44 43 41 39 36 34
Wind_Direction
89 86 89 94 97 83 93 235 251 269 261 194 193 214 230 238 277 203 199 185 215 249 259 271 276 278 279 287 301 311 319 324 328 331 335 340 345 351 358 4 11 13 13 12 9 5 359 355 354
92 88 96 100 91 102 171 270 285 299 281 251 229 235 231 229 216 183 198 205 202 236 252 262 266 274 283 292 299 305 311 316 319 320 323 328 333 338 343 350 357 0 0 359 357 356 353 346 340
105 103 107 101 88 123 192 289 309 295 285 277 267 271 269 267 253 234 243 233 227 245 255 262 264 269 281 292 299 303 307 312 315 315 315 318 322 326 331 334 339 344 347 348 347 346 346 341 332
136 115 112 69 24 166 268 300 315 303 299 282 280 280 275 275 266 264 261 254 259 269 275 282 285 289 294 299 302 305 307 310 312 312 311 310 313 316 319 321 324 329 333 337 340 340 339 337 331
200 152 132 26 264 256 286 296 297 300 314 304 296 292 284 278 273 269 269 272 280 292 302 311 315 317 317 318 316 313 310 309 308 307 306 304 305 307 309 311 314 318 321 326 330 332 334 334 332
222 202 122 294 275 229 257 283 285 287 304 306 299 298 291 282 274 273 273 282 296 311 322 327 328 328 327 324 320 315 309 305 302 301 299 299 299 301 302 304 305 308 312 315 319 322 324 325 325
235 227 194 275 285 257 220 272 283 288 298 290 293 295 288 277 272 273 271 275 293 311 316 319 319 320 320 318 314 310 305 301 298 295 293 293 293 294 295 296 297 299 301 303 306 309 311 312 312
242 234 212 267 284 276 250 248 271 281 278 276 295 286 273 271 265 266 270 277 289 301 308 312 316 317 317 316 312 308 303 300 296 292 289 287 286 286 287 288 289 290 291 292 293 295 297 299 299
243 236 214 256 272 269 264 255 265 279 278 290 290 277 268 261 261 265 271 282 293 299 307 313 318 319 319 319 316 311 306 301 297 293 289 286 284 282 281 282 282 283 285 285 286 286 287 289 290
241 233 212 247 245 253 261 258 265 274 280 274 265 252 243 255 266 273 280 288 297 303 308 313 318 320 320 319 318 313 308 304 299 295 290 287 284 281 279 279 279 280 281 282 282 283 283 283 284
240 230 220 234 237 239 247 265 273 274 278 274 267 244 223 256 279 285 288 293 299 305 309 312 316 317 317 316 315 312 308 305 301 297 293 288 284 281 279 279 278 278 279 280 280 280 281 281 281
245 237 232 238 241 245 250 254 255 261 268 274 276 279 288 285 289 291 291 294 298 302 306 310 313 315 315 315 314 311 308 305 301 298 295 292 288 284 281 279 277 275 276 277 277 279 281 281 280
249 248 244 246 249 253 256 256 254 255 262 271 277 281 285 288 290 289 291 293 296 300 303 307 310 312 312 312 312 310 308 307 305 301 298 296 293 289 284 281 280 278 277 277 278 278 280 281 281
255 250 248 249 252 255 258 259 257 257 264 272 279 281 287 290 289 289 291 292 295 298 300 303 306 308 308 309 309 308 307 307 306 304 300 297 294 291 289 286 284 283 284 284 286 284 284 285 286
261 260 258 254 255 260 262 261 260 260 260 267 274 279 282 282 282 286 290 290 294 295 297 299 301 302 303 304 304 304 306 306 305 302 299 297 295 292 289 285 284 284 284 284 285 286 287 287 289
270 268 263 259 259 259 257 259 259 260 257 257 263 272 277 280 281 284 287 289 290 290 292 294 295 297 297 299 300 302 304 305 303 300 297 295 293 290 286 283 281 281 281 282 284 286 288 290 291
297 291 280 267 258 248 252 261 260 255 256 258 263 269 276 280 281 282 284 284 285 286 286 287 290 291 292 295 297 300 303 304 301 297 295 292 289 285 281 278 278 278 279 282 287 291 294 296 295
263 267 275 269 248 245 250 254 253 255 258 262 268 274 277 280 280 279 279 279 281 280 280 281 283 286 288 292 296 299 301 302 299 295 293 289 284 280 274 272 273 275 279 283 288 294 298 300 300
232 217 214 222 242 255 257 259 260 260 263 266 269 273 276 278 279 278 277 276 273 272 273 275 277 281 285 290 294 298 299 298 295 292 289 285 280 275 269 268 269 273 279 284 290 296 301 304 306
256 254 246 241 246 259 268 274 271 267 268 271 275 278 278 278 276 273 273 271 265 263 266 267 271 280 285 290 294 298 298 296 292 289 285 279 273 269 265 264 267 273 278 283 288 295 302 306 309
267 255 247 246 249 259 277 289 289 279 270 272 279 281 280 278 277 272 265 264 258 258 264 268 273 279 285 290 293 296 295 294 292 287 280 272 266 261 259 262 269 274 276 280 285 292 299 305 309
274 264 258 262 266 268 271 277 277 264 260 266 276 283 285 282 282 281 275 276 273 271 271 277 278 282 287 289 291 291 291 291 289 283 276 265 257 256 259 264 270 274 276 278 281 286 293 301 306
282 275 277 280 280 271 260 261 260 255 258 269 281 289 292 290 289 291 292 292 286 289 289 290 288 287 287 287 286 287 290 290 287 279 272 264 256 257 261 267 272 275 277 278 280 283 288 296 303
315 314 314 306 286 270 250 224 248 261 276 284 290 293 294 294 294 295 297 296 295 294 294 296 294 292 288 286 287 288 289 288 286 280 273 264 260 259 262 269 274 276 277 278 280 282 287 292 298
309 317 319 316 317 324 319 265 255 276 289 293 294 296 297 297 296 295 295 293 292 292 292 294 292 291 287 285 286 286 285 284 282 279 276 271 267 265 264 267 272 275 276 276 279 282 284 288 294
327 328 323 310 307 316 318 290 278 280 283 288 294 298 299 299 298 297 296 294 293 291 290 290 288 286 284 283 283 283 283 281 279 276 274 272 271 270 270 270 272 273 273 274 276 279 282 284 288
330 323 305 300 304 304 297 290 287 288 288 286 293 298 300 298 297 296 295 294 293 291 289 287 286 284 282 281 280 280 279 278 276 274 271 268 268 269 271 271 272 272 272 272 274 277 279 280 283
317 320 318 314 308 299 297 296 296 297 297 300 300 299 299 298 296 294 292 290 289 288 287 285 284 283 281 280 279 278 277 275 274 272 271 269 267 266 266 268 268 269 270 271 272 273 275 276 278
303 311 308 306 304 298 293 287 288 293 295 296 297 297 296 295 294 293 291 289 288 287 285 284 282 281 279 278 277 276 275 274 272 271 270 268 267 266 264 263 264 265 267 267 269 269 270 271 273
304 313 315 313 309 304 300 291 295 295 295 296 296 296 295 294 293 292 291 290 289 288 286 285 283 281 279 277 275 274 273 272 271 270 268 268 267 265 264 262 261 261 263 264 265 264 265 266 267
Height
5920 5920 5920 5920 5921 5920 5923 5922 5920 5918 5918 5918 5917 5916 5916 5917 5918 5920 5917 5917 5917 5918 5918 5918 5918 5918 5918 5918 5917 5917 5917 5916 5915 5914 5913 5912 5911 5910 5909 5908 5907 5905 5904 5903 5902 5901 5900 5899 5898
5921 5922 5922 5922 5920 5921 5923 5921 5919 5919 5918 5918 5917 5917 5916 5916 5916 5917 5916 5917 5917 5917 5917 5918 5918 5918 5917 5917 5917 5917 5916 5915 5915 5914 5913 5912 5911 5910 5909 5908 5907 5906 5905 5904 5903 5902 5901 5899 5899
5922 5923 5923 5922 5921 5921 5922 5921 5920 5919 5918 5918 5917 5917 5917 5916 5916 5916 5916 5916 5916 5916 5916 5916 5916 5916 5916 5916 5916 5915 5915 5914 5914 5913 5912 5912 5911 5910 5909 5908 5907 5906 5905 5904 5903 5902 5901 5900 5899
5922 5923 5924 5924 5923 5921 5922 5922 5921 5919 5918 5918 5917 5917 5916 5916 5916 5916 5915 5916 5916 5915 5915 5915 5915 5915 5915 5915 5914 5914 5914 5913 5912 5912 5911 5911 5910 5909 5909 5908 5907 5906 5905 5904 5902 5901 5900 5899 5898
5922 5923 5924 5924 5925 5923 5922 5921 5920 5919 5918 5917 5917 5917 5916 5916 5915 5915 5915 5915 5915 5915 5914 5914 5914 5914 5914 5913 5913 5912 5912 5911 5911 5910 5910 5909 5909 5908 5907 5906 5905 5904 5903 5902 5902 5900 5899 5898 5897
5922 5922 5922 5924 5923 5921 5921 5921 5918 5918 5917 5916 5915 5916 5915 5915 5914 5914 5914 5914 5914 5914 5914 5913 5913 5913 5912 5912 5911 5910 5910 5909 5909 5908 5908 5907 5906 5906 5905 5904 5903 5902 5902 5901 5900 5899 5898 5897 5896
5920 5921 5921 5923 5922 5918 5916 5919 5917 5916 5915 5915 5914 5914 5913 5913 5913 5913 5913 5913 5913 5913 5912 5912 5912 5911 5910 5909 5908 5908 5907 5906 5906 5905 5905 5904 5904 5903 5902 5901 5900 5899 5899 5898 5897 5897 5896 5895 5894
5917 5920 5921 5923 5921 5917 5913 5916 5916 5915 5914 5913 5912 5911 5912 5912 5912 5912 5911 5911 5912 5912 5911 5910 5910 5909 5908 5907 5906 5905 5904 5903 5902 5902 5901 5900 5900 5899 5898 5897 5896 5895 5894 5894 5893 5893 5892 5892 5891
5914 5917 5919 5922 5920 5916 5914 5915 5915 5913 5912 5911 5910 5908 5909 5910 5910 5910 5910 5910 5909 5909 5909 5908 5907 5906 5905 5904 5902 5901 5900 5899 5898 5897 5897 5896 5895 5895 5894 5893 5892 5891 5890 5889 5888 5888 5887 5887 5887
5911 5913 5916 5918 5916 5914 5913 5914 5913 5913 5908 5905 5904 5902 5903 5907 5908 5908 5908 5907 5906 5906 5905 5905 5904 5902 5901 5900 5898 5896 5895 5894 5892 5892 5891 5890 5890 5889 5888 5888 5886 5885 5884 5883 5882 5882 5882 5881 5881
5906 5909 5910 5911 5911 5911 5911 5913 5913 5913 5908 5901 5898 5893 5894 5901 5903 5904 5904 5903 5903 5902 5901 5900 5899 5898 5896 5895 5893 5891 5890 5889 5887 5885 5884 5883 5883 5882 5881 5881 5880 5878 5877 5876 5876 5875 5875 5875 5874
5901 5903 5904 5905 5906 5907 5908 5910 5911 5911 5907 5900 5896 5894 5894 5897 5899 5899 5899 5899 5898 5897 5896 5895 5894 5892 5890 5888 5887 5885 5884 5883 5881 5879 5878 5876 5875 5874 5874 5873 5872 5871 5870 5869 5869 5868 5868 5867 5867
5896 5898 5899 5900 5902 5903 5904 5905 5906 5907 5903 5896 5893 5893 5892 5890 5893 5894 5894 5894 5894 5893 5891 5890 5888 5886 5884 5882 5880 5878 5877 5875 5874 5873 5871 5869 5868 5867 5866 5865 5864 5864 5863 5863 5862 5861 5860 5860 5859
5891 5892 5893 5895 5897 5898 5899 5900 5901 5903 5900 5894 5888 5887 5887 5886 5885 5887 5888 5887 5887 5886 5885 5883 5882 5880 5878 5876 5874 5872 5870 5868 5867 5865 5864 5862 5861 5859 5858 5858 5857 5856 5856 5855 5855 5854 5853 5853 5852
5886 5887 5888 5890 5892 5894 5895 5896 5897 5898 5898 5893 5888 5885 5885 5885 5883 5881 5881 5880 5880 5879 5877 5876 5874 5873 5871 5869 5867 5866 5864 5862 5861 5859 5857 5856 5854 5853 5852 5851 5851 5850 5850 5849 5849 5848 5847 5846 5845
5882 5882 5884 5886 5888 5890 5892 5891 5893 5893 5893 5889 5885 5882 5881 5881 5879 5875 5874 5873 5871 5870 5869 5868 5866 5865 5863 5862 5861 5859 5857 5856 5854 5852 5851 5850 5848 5847 5846 5845 5845 5845 5844 5844 5843 5842 5841 5840 5839
5879 5880 5881 5884 5886 5887 5886 5887 5888 5887 5885 5882 5881 5879 5877 5876 5874 5869 5866 5864 5861 5859 5858 5857 5856 5856 5855 5854 5853 5852 5850 5849 5847 5845 5844 5843 5842 5841 5840 5840 5840 5840 5839 5838 5837 5836 5836 5834 5833
5879 5882 5883 5884 5882 5880 5880 5881 5882 5880 5878 5877 5876 5874 5872 5869 5867 5861 5857 5852 5849 5845 5844 5845 5846 5847 5847 5846 5846 5844 5843 5842 5840 5839 5838 5837 5836 5835 5835 5835 5835 5835 5834 5833 5832 5831 5830 5829 5827
5874 5875 5877 5880 5878 5874 5873 5874 5876 5875 5873 5872 5870 5868 5865 5862 5859 5853 5846 5840 5837 5834 5831 5834 5837 5839 5839 5839 5838 5837 5836 5835 5834 5833 5832 5831 5830 5830 5830 5830 5830 5830 5829 5828 5827 5826 5825 5823 5821
5871 5873 5874 5874 5871 5869 5868 5868 5869 5868 5867 5865 5863 5862 5858 5853 5845 5839 5836 5826 5823 5821 5819 5824 5827 5830 5831 5831 5830 5830 5828 5828 5827 5826 5826 5825 5824 5824 5825 5825 5825 5825 5824 5824 5822 5821 5819 5817 5815
5868 5868 5867 5866 5864 5864 5864 5864 5863 5862 5860 5858 5855 5853 5850 5844 5835 5828 5820 5812 5806 5803 5808 5813 5819 5822 5823 5823 5823 5822 5822 5821 5820 5820 5819 5819 5819 5819 5820 5820 5820 5820 5819 5818 5817 5816 5814 5812 5809
5865 5863 5862 5861 5861 5861 5863 5861 5859 5856 5853 5850 5848 5846 5842 5836 5828 5820 5810 5806 5801 5799 5802 5809 5813 5814 5815 5815 5816 5815 5815 5814 5814 5813 5813 5813 5813 5814 5814 5814 5814 5814 5814 5813 5811 5810 5808 5807 5804
5861 5859 5858 5858 5857 5856 5857 5857 5855 5850 5848 5845 5844 5841 5838 5832 5824 5818 5811 5808 5805 5802 5801 5806 5806 5807 5807 5807 5807 5807 5807 5807 5806 5806 5806 5806 5807 5808 5808 5808 5808 5807 5807 5806 5805 5804 5802 5800 5798
5859 5857 5856 5855 5853 5850 5847 5848 5848 5845 5844 5843 5841 5838 5833 5827 5821 5817 5813 5809 5806 5804 5801 5800 5801 5801 5800 5800 5800 5800 5800 5799 5799 5798 5798 5799 5799 5800 5801 5801 5801 5800 5800 5799 5798 5797 5796 5794 5792
5858 5857 5856 5854 5849 5844 5841 5842 5842 5840 5839 5838 5835 5832 5828 5823 5818 5814 5810 5806 5803 5801 5797 5796 5796 5795 5794 5793 5793 5792 5792 5792 5791 5791 5791 5791 5791 5791 5792 5793 5793 5793 5792 5792 5791 5790 5789 5788 5786
5856 5855 5856 5853 5851 5849 5843 5840 5837 5834 5833 5832 5830 5827 5823 5818 5814 5809 5804 5801 5798 5795 5793 5790 5789 5787 5786 5785 5784 5783 5782 5782 5782 5782 5783 5783 5782 5782 5783 5784 5784 5784 5784 5784 5783 5783 5782 5781 5779
5856 5854 5853 5850 5848 5847 5846 5837 5833 5828 5826 5825 5823 5821 5817 5812 5807 5802 5796 5792 5788 5786 5783 5781 5779 5777 5775 5774 5773 5771 5771 5771 5771 5771 5771 5772 5772 5772 5773 5773 5774 5775 5775 5775 5775 5775 5774 5774 5772
5855 5852 5850 5848 5845 5843 5843 5833 5829 5825 5822 5820 5817 5813 5809 5804 5799 5793 5788 5783 5778 5774 5770 5768 5766 5764 5762 5760 5759 5758 5758 5757 5757 5757 5758 5758 5760 5761 5761 5762 5763 5764 5765 5765 5765 5766 5766 5766 5765
5854 5851 5848 5845 5842 5839 5837 5833 5826 5822 5818 5814 5809 5805 5800 5795 5789 5783 5777 5772 5767 5762 5757 5753 5750 5748 5746 5744 5743 5742 5741 5741 5741 5741 5742 5743 5744 5746 5748 5749 5750 5751 5753 5754 5755 5755 5756 5757 5757
5850 5848 5845 5842 5838 5835 5831 5827 5822 5817 5812 5807 5801 5795 5790 5784 5777 5771 5765 5759 5754 5748 5743 5738 5734 5731 5728 5726 5725 5724 5723 5722 5722 5723 5723 5725 5726 5729 5731 5734 5736 5738 5740 5742 5743 5744 5746 5747 5748